Temp
30 24 23 31 35 36 35 32 30 35 40 39 37 39 44 46 47 50 52 48 46 49 56 55 54 53 51 53 53 52 51 51 49 45 44 42 44 41 39 40 43 42 42 42
24 19 29 34 35 33 33 31 30 36 39 37 36 35 39 42 44 48 49 48 44 44 47 49 50 48 50 51 52 52 52 50 50 50 49 44 45 39 43 42 42 43 42 41
21 24 33 31 29 27 30 29 31 29 33 38 33 32 35 38 41 44 46 49 51 47 48 50 45 47 50 51 51 52 52 50 50 50 45 39 39 37 37 38 40 40 42 41
23 30 28 24 24 27 24 35 33 33 30 23 33 21 33 39 40 42 47 49 49 46 47 51 46 45 46 50 53 54 52 51 50 49 46 44 44 40 43 44 42 39 41 40
21 24 24 21 24 32 23 30 31 30 28 26 27 23 30 38 35 38 44 48 50 48 49 51 52 50 49 51 51 52 52 50 50 48 48 46 48 47 38 39 38 40 38 39
26 34 30 27 31 33 34 28 29 29 27 19 25 24 27 27 35 40 43 46 49 51 50 52 55 51 49 49 49 49 49 48 48 47 47 47 47 38 38 38 38 38 37 36
23 25 31 32 24 26 30 24 18 17 17 17 30 25 29 31 41 43 44 45 47 46 48 51 49 47 47 45 46 47 47 46 46 45 46 45 45 41 41 39 40 36 34 32
13 10 25 30 26 23 19 23 20 13 15 19 25 20 26 40 43 34 40 40 44 43 46 48 47 47 46 45 44 46 45 45 43 45 44 44 41 43 43 41 40 38 37 36
9 14 33 30 31 31 22 19 23 20 9 15 14 23 31 33 35 40 41 42 41 39 39 41 43 43 44 42 42 45 44 44 42 43 43 42 41 41 39 38 39 38 37 34
19 15 29 31 32 31 29 30 19 21 9 11 9 13 20 21 28 34 29 31 33 32 33 34 35 36 39 39 39 42 43 41 40 42 41 40 39 38 36 35 35 34 33 34
22 20 21 26 25 21 23 24 25 25 22 14 13 15 17 20 19 22 24 29 27 28 28 28 29 29 27 28 30 33 35 34 36 37 38 36 35 35 34 35 34 33 31 32
24 23 14 22 24 29 29 25 26 18 15 15 14 15 14 12 13 17 23 27 26 26 24 24 26 23 24 25 27 27 31 34 34 34 34 34 34 34 33 32 31 31 31 30
26 20 13 16 23 28 25 22 25 24 22 16 16 13 15 24 22 22 20 23 24 25 23 24 23 22 24 23 21 24 25 27 30 33 32 32 31 32 31 29 29 29 29 28
29 18 16 12 17 22 20 21 26 26 17 9 15 10 18 19 19 24 28 22 22 21 15 22 22 21 21 20 17 19 22 24 28 30 30 30 29 29 29 28 28 29 29 28
19 16 15 21 22 21 18 16 18 15 18 17 15 19 16 19 18 24 25 28 24 19 18 14 22 21 16 20 20 19 20 22 23 27 28 27 28 27 28 28 28 27 27 27
19 14 17 18 21 20 17 18 19 17 16 18 14 16 22 20 18 18 18 22 23 25 18 15 15 15 17 19 20 23 21 21 24 23 24 25 26 27 26 26 25 25 25 25
20 15 14 12 15 19 13 15 17 17 18 17 13 18 21 20 19 17 18 18 19 21 24 18 23 24 23 23 24 23 23 24 24 23 23 24 24 24 24 24 24 24 24 24
19 15 15 12 17 8 17 21 19 17 18 19 19 19 20 20 21 20 20 18 17 19 20 22 22 24 22 23 21 23 25 24 24 23 24 24 24 23 23 23 23 23 23 23
24 20 10 9 11 15 19 20 18 17 14 19 16 18 19 22 22 21 21 20 19 19 21 21 24 22 23 22 24 24 23 23 24 23 23 23 24 23 23 22 22 22 22 22
24 23 16 11 9 3 15 21 25 21 10 18 18 18 17 22 17 19 22 20 20 21 21 21 21 21 21 21 24 24 23 23 22 23 23 23 23 22 22 22 22 23 23 24
17 16 12 10 9 8 19 21 25 6 9 19 17 18 18 17 19 21 21 19 21 20 21 21 22 21 21 21 23 22 22 21 22 22 22 22 22 21 22 22 22 22 21 22
15 13 13 13 6 3 22 21 14 15 17 14 13 15 15 14 14 15 18 18 20 19 20 21 20 21 22 24 24 22 21 21 21 20 20 19 19 21 21 20 19 19 19 19
14 17 16 16 15 21 21 17 20 18 14 17 19 19 20 19 17 19 18 19 21 21 20 21 20 20 20 21 22 20 19 19 18 18 17 17 17 19 19 17 16 16 16 17
21 23 20 20 20 19 20 20 19 18 20 21 21 20 19 18 18 18 19 19 18 20 20 20 19 18 18 19 20 19 19 17 17 16 15 15 15 16 16 19 19 17 14 14
18 19 16 19 20 20 20 20 19 20 20 20 20 18 17 17 16 16 18 18 18 18 19 18 18 18 17 17 16 16 16 16 16 15 15 16 16 16 15 16 15 17 16 17
17 15 14 14 18 17 20 19 18 18 18 18 17 17 18 17 16 16 16 16 15 15 15 15 14 15 14 13 14 14 14 14 15 15 15 16 16 14 15 14 15 21 24 25
MSLP
1011.31 1010.70 1009.04 1007.44 1006.60 1006.63 1006.44 1006.29 1005.57 1005.24 1005.47 1005.14 1004.57 1002.83 1003.51 1003.54 1003.13 1002.73 1002.65 1002.97 1003.20 1003.20 1002.94 1003.17 1003.77 1004.46 1005.23 1005.81 1006.61 1007.21 1007.77 1008.47 1009.65 1010.84 1011.89 1012.81 1013.27 1013.94 1014.48 1014.85 1015.19 1015.74 1016.33 1016.91
1011.53 1009.97 1008.02 1008.70 1007.98 1006.98 1006.42 1006.02 1005.37 1005.21 1005.27 1005.09 1004.37 1002.97 1003.54 1003.35 1002.57 1002.38 1002.39 1002.35 1002.65 1003.02 1003.06 1003.19 1003.31 1003.74 1004.41 1004.90 1005.35 1006.35 1007.00 1007.66 1008.39 1009.33 1010.25 1011.27 1012.03 1013.13 1013.60 1014.25 1014.70 1015.18 1015.87 1016.51
1010.72 1009.17 1008.72 1008.45 1007.76 1007.47 1005.64 1004.88 1004.95 1004.93 1004.96 1004.60 1004.57 1003.02 1003.42 1003.05 1002.64 1002.13 1001.85 1001.58 1001.70 1002.00 1002.37 1002.53 1002.94 1002.98 1003.36 1003.95 1004.29 1004.83 1005.49 1006.47 1007.15 1008.20 1009.64 1011.05 1012.13 1013.09 1013.65 1014.04 1014.56 1015.06 1015.42 1015.98
1009.59 1008.01 1007.82 1007.51 1006.95 1006.94 1005.24 1004.88 1004.81 1004.85 1005.49 1004.11 1004.46 1002.62 1002.62 1002.15 1001.94 1002.03 1001.12 1001.19 1001.03 1001.34 1001.55 1001.55 1001.96 1002.45 1002.64 1002.81 1003.22 1003.73 1004.65 1005.43 1006.48 1007.46 1008.43 1009.39 1009.99 1011.51 1011.99 1012.37 1013.50 1014.36 1015.05 1015.68
1008.03 1007.06 1006.84 1006.79 1005.52 1005.82 1005.85 1005.83 1005.37 1004.76 1004.53 1004.54 1004.24 1003.71 1001.38 1001.76 1001.57 1001.27 1000.63 1000.31 1000.22 1000.38 1000.51 1000.63 1000.81 1001.12 1001.53 1002.21 1002.69 1003.38 1004.17 1004.86 1005.62 1006.46 1007.12 1008.06 1009.14 1010.06 1011.06 1012.31 1013.35 1014.14 1014.86 1015.40
1007.05 1005.53 1005.94 1004.50 1004.21 1004.74 1004.38 1005.89 1005.42 1004.80 1004.72 1002.96 1002.87 1003.60 1000.57 1001.03 1000.60 1000.35 1000.04 999.54 999.22 999.34 999.55 999.63 999.61 1000.07 1000.64 1001.35 1002.02 1002.57 1003.28 1003.97 1004.67 1005.63 1006.45 1007.20 1008.14 1009.35 1010.62 1011.84 1012.96 1013.93 1014.75 1015.35
1005.88 1004.50 1003.30 1003.87 1003.90 1003.68 1003.75 1004.73 1004.37 1003.27 1002.71 1001.15 1001.29 1002.31 1000.69 999.76 999.59 999.16 998.79 998.75 998.68 998.86 999.00 999.00 999.30 999.80 1000.17 1000.58 1001.28 1001.89 1002.62 1003.48 1004.18 1004.99 1005.75 1006.47 1007.34 1008.29 1009.19 1010.40 1011.68 1013.06 1014.28 1015.02
1005.98 1004.02 1003.14 1002.95 1002.72 1002.73 1002.97 1003.34 1002.22 1002.11 1001.41 1001.39 1001.32 1000.60 999.72 998.83 998.96 998.89 998.39 998.44 998.48 998.61 998.77 998.83 998.97 999.45 999.65 1000.01 1000.51 1001.28 1001.95 1002.79 1003.56 1004.17 1004.95 1005.79 1006.69 1007.53 1008.45 1009.41 1010.51 1011.70 1012.71 1013.67
1006.18 1004.32 1002.44 1002.28 1001.43 1002.07 1002.43 1002.64 1002.23 1002.15 1002.46 1001.85 1001.50 1001.03 1000.03 999.40 999.36 998.86 998.82 998.58 998.66 999.64 999.84 999.87 999.74 999.77 999.75 999.91 1000.08 1000.44 1001.26 1001.87 1002.82 1003.56 1004.56 1005.33 1006.23 1007.00 1008.00 1009.04 1009.98 1011.03 1012.09 1013.01
1006.46 1004.59 1001.92 1001.17 1001.12 1001.24 1001.21 1001.75 1002.64 1002.77 1003.28 1002.20 1002.30 1002.14 1001.30 1000.99 1000.55 999.95 999.85 1000.02 1000.42 1000.64 1000.94 1000.89 1000.70 1000.43 1000.12 999.85 1000.04 1000.31 1000.80 1001.26 1001.96 1002.96 1003.92 1004.88 1005.74 1006.68 1007.70 1008.73 1009.79 1010.72 1011.75 1012.69
1006.42 1005.40 1002.78 1002.01 1000.95 1000.64 1001.47 1001.12 1001.95 1002.03 1002.49 1002.26 1003.34 1003.04 1002.84 1002.57 1001.96 1001.83 1001.46 1001.49 1001.68 1001.83 1001.88 1001.99 1001.98 1001.75 1001.25 1000.65 1000.67 1000.91 1001.24 1001.84 1002.52 1003.15 1003.90 1004.79 1005.79 1006.81 1007.86 1008.67 1009.66 1010.60 1011.60 1012.49
1006.40 1005.08 1003.63 1001.72 1000.81 1000.40 1000.41 1000.29 1000.71 1001.24 1002.51 1003.50 1004.11 1004.03 1003.97 1004.40 1004.13 1003.88 1003.26 1003.32 1003.08 1002.93 1003.05 1003.09 1002.95 1002.85 1002.55 1002.08 1001.86 1001.81 1001.98 1002.48 1002.96 1003.37 1004.31 1005.09 1005.77 1006.78 1007.93 1008.95 1009.80 1010.68 1011.69 1012.59
1006.94 1005.87 1004.58 1001.88 1001.24 1000.83 1000.83 1000.83 1000.78 1001.45 1002.31 1003.61 1004.50 1004.65 1004.95 1004.70 1004.56 1004.76 1004.69 1003.88 1003.81 1003.52 1003.51 1003.77 1003.85 1003.76 1003.78 1003.55 1003.23 1003.05 1003.14 1003.40 1003.66 1004.05 1004.34 1005.53 1006.39 1007.05 1008.00 1009.12 1010.01 1010.98 1011.93 1012.71
1007.30 1006.97 1006.49 1005.48 1004.11 1003.43 1002.27 1001.69 1001.59 1001.78 1003.22 1004.12 1004.52 1005.34 1005.81 1005.87 1005.79 1005.45 1005.05 1004.87 1004.72 1004.61 1004.51 1004.63 1004.61 1004.58 1004.69 1004.58 1004.44 1004.17 1004.21 1004.10 1004.35 1004.75 1005.29 1005.88 1006.73 1007.45 1008.30 1009.34 1010.21 1011.02 1011.97 1012.79
1008.13 1007.53 1006.56 1005.52 1004.56 1004.23 1003.91 1003.59 1003.33 1003.61 1004.36 1004.78 1005.29 1005.96 1007.08 1007.33 1007.12 1006.75 1006.33 1005.37 1004.84 1005.13 1005.14 1005.20 1005.33 1005.39 1005.54 1005.05 1005.20 1005.35 1005.25 1004.97 1005.02 1005.45 1006.16 1006.79 1007.36 1008.12 1008.93 1009.85 1010.50 1011.42 1012.09 1012.61
1008.37 1007.98 1007.09 1005.62 1005.36 1005.08 1005.01 1005.10 1005.00 1005.20 1005.51 1006.03 1006.35 1006.80 1007.43 1007.71 1007.69 1007.50 1007.10 1006.45 1006.08 1005.81 1005.79 1006.04 1005.72 1005.93 1006.10 1005.93 1005.53 1005.94 1006.02 1006.29 1005.97 1006.51 1007.33 1007.80 1008.19 1008.85 1009.56 1010.42 1011.20 1011.81 1012.24 1012.66
1008.70 1008.47 1007.75 1006.29 1005.34 1005.12 1005.89 1006.93 1006.91 1007.19 1007.54 1007.40 1007.44 1008.28 1008.03 1007.78 1008.01 1008.00 1007.61 1007.28 1006.99 1006.77 1006.33 1006.33 1006.03 1005.98 1006.42 1006.41 1006.00 1006.71 1006.61 1006.70 1007.20 1007.50 1008.19 1008.86 1009.23 1009.59 1010.04 1010.77 1011.66 1012.11 1012.43 1012.82
1008.22 1008.47 1008.47 1007.06 1005.71 1006.52 1007.54 1007.69 1007.85 1007.99 1008.56 1008.79 1008.98 1008.91 1008.59 1008.22 1007.96 1008.41 1008.34 1008.20 1007.72 1007.22 1006.44 1006.07 1005.85 1006.04 1006.43 1006.46 1006.97 1007.24 1007.24 1007.51 1007.89 1008.49 1008.77 1009.44 1009.89 1010.20 1010.76 1011.38 1011.86 1012.20 1012.45 1012.73
1008.03 1008.52 1008.36 1007.94 1007.68 1008.12 1007.97 1008.32 1008.64 1008.91 1009.56 1009.63 1009.70 1009.49 1008.88 1008.04 1007.97 1008.42 1008.60 1008.61 1008.31 1007.53 1006.90 1006.29 1005.89 1006.25 1006.55 1006.60 1007.19 1007.71 1007.99 1008.36 1008.57 1009.01 1009.24 1009.78 1010.51 1010.73 1010.91 1011.44 1011.82 1012.33 1012.73 1013.12
1007.95 1008.40 1008.84 1008.43 1008.72 1009.35 1009.43 1009.10 1009.14 1009.53 1010.43 1010.57 1010.56 1010.50 1010.11 1009.20 1008.72 1008.93 1008.83 1008.67 1008.21 1007.79 1007.24 1006.84 1006.71 1006.83 1007.05 1007.53 1007.81 1008.06 1008.59 1008.90 1009.03 1009.55 1009.86 1010.48 1010.76 1011.01 1011.42 1011.68 1011.98 1012.42 1012.93 1012.90
1008.56 1008.65 1009.06 1009.05 1009.58 1010.26 1010.42 1009.92 1009.71 1010.98 1012.34 1011.35 1011.41 1011.51 1011.21 1010.96 1010.94 1010.25 1009.75 1009.34 1009.00 1008.57 1008.03 1007.74 1007.60 1007.65 1007.94 1008.15 1008.23 1008.67 1008.96 1009.06 1009.38 1009.91 1010.33 1010.79 1011.08 1011.10 1011.55 1011.92 1012.29 1012.74 1012.97 1012.96
1009.67 1009.64 1009.61 1009.80 1010.54 1011.45 1010.76 1010.21 1011.33 1012.78 1012.32 1012.26 1012.15 1012.02 1011.93 1011.62 1011.02 1010.74 1010.25 1009.92 1009.53 1009.16 1008.95 1008.75 1008.56 1008.60 1008.60 1008.58 1008.62 1008.84 1009.16 1009.60 1010.03 1010.61 1010.93 1011.22 1011.45 1011.59 1011.93 1012.16 1012.31 1012.75 1013.19 1013.37
1010.59 1010.96 1010.94 1011.12 1011.51 1011.86 1012.35 1012.72 1013.09 1013.01 1013.09 1012.72 1012.43 1012.26 1012.17 1011.83 1011.51 1010.98 1010.69 1010.45 1010.12 1009.78 1009.80 1009.66 1009.54 1009.53 1009.52 1009.44 1009.49 1009.91 1010.44 1010.68 1010.71 1010.75 1011.04 1011.25 1011.51 1011.71 1012.04 1012.37 1012.68 1013.17 1013.43 1013.57
1011.55 1011.49 1011.37 1011.72 1012.36 1012.46 1013.02 1013.13 1013.48 1013.47 1013.22 1012.92 1012.65 1012.63 1012.38 1012.19 1011.91 1011.55 1011.00 1010.70 1010.57 1010.59 1010.59 1010.49 1010.38 1010.43 1010.46 1010.42 1010.39 1010.56 1010.83 1010.98 1011.10 1011.35 1011.59 1011.66 1011.83 1012.38 1012.42 1012.53 1012.77 1012.90 1013.45 1013.76
1012.83 1012.55 1012.58 1012.39 1012.54 1012.93 1013.27 1013.65 1013.96 1013.76 1013.59 1013.37 1013.32 1013.24 1013.04 1012.75 1012.41 1012.23 1012.02 1011.77 1011.49 1011.37 1011.28 1011.16 1011.08 1011.24 1011.30 1011.30 1011.31 1011.33 1011.41 1011.51 1011.55 1011.59 1011.68 1011.84 1011.98 1012.27 1012.64 1012.77 1012.88 1013.08 1013.17 1013.28
1013.43 1013.51 1013.66 1013.54 1013.85 1014.18 1013.98 1014.34 1014.62 1014.45 1014.41 1014.26 1014.07 1013.91 1013.90 1013.78 1013.52 1013.18 1012.90 1012.66 1012.47 1012.24 1012.06 1011.96 1011.97 1012.00 1011.99 1012.04 1012.00 1011.92 1011.82 1011.77 1011.84 1011.84 1011.89 1012.05 1012.31 1012.83 1013.04 1013.10 1013.05 1012.85 1012.79 1012.73
Wind_Speed
4 8 19 29 27 25 20 21 19 13 9 14 20 28 17 12 11 17 15 10 11 13 15 12 12 10 9 13 15 17 18 16 13 9 9 6 9 6 4 5 8 8 7 7
4 16 25 19 21 23 26 26 24 17 9 12 12 21 8 9 11 13 14 13 10 7 9 8 10 10 14 16 18 17 18 16 15 12 10 4 7 3 5 6 8 9 9 9
14 13 11 20 23 25 23 26 27 17 6 17 7 23 15 8 6 8 9 10 10 12 13 12 10 13 13 16 19 19 21 19 18 16 9 4 6 4 3 4 5 6 9 9
10 22 20 20 21 17 26 19 24 23 15 19 10 18 12 19 21 13 19 17 16 10 8 11 9 10 14 17 17 18 18 19 17 18 15 15 11 8 8 8 7 7 9 8
12 9 12 14 27 24 17 9 16 16 14 12 10 10 11 14 14 16 19 19 16 12 13 14 14 13 14 13 14 14 15 17 17 19 18 15 13 9 5 5 9 8 6 8
23 19 14 24 23 19 19 13 21 19 14 21 20 17 21 9 18 14 14 19 19 17 12 13 14 8 10 10 10 13 16 17 17 18 18 19 18 11 10 9 9 7 6 5
8 16 11 14 8 5 7 16 11 16 17 20 20 18 21 7 19 22 21 18 16 10 11 12 11 9 9 13 14 13 15 16 17 18 18 18 16 16 17 15 11 11 7 4
4 10 4 7 14 4 7 5 3 8 5 12 5 11 12 25 20 8 13 14 13 11 10 10 8 8 10 13 15 16 16 15 16 18 18 15 15 11 11 14 11 10 10 9
3 7 5 7 8 20 7 8 3 6 3 3 3 5 7 6 14 22 21 16 13 5 4 8 8 7 7 9 14 17 16 16 16 17 14 14 14 13 12 11 10 10 9 8
5 14 5 5 6 12 10 8 2 4 2 5 3 3 7 3 10 14 10 4 6 3 6 8 8 8 6 6 8 11 14 16 15 15 14 12 13 11 10 10 10 10 8 10
7 5 9 5 2 3 7 7 6 5 4 3 3 5 4 5 4 6 7 7 7 8 7 6 6 6 5 2 3 4 6 8 9 10 11 12 10 10 9 9 9 9 8 9
5 5 5 18 4 6 3 4 4 4 3 2 4 7 4 5 6 5 6 7 7 5 5 5 6 5 6 5 5 4 5 8 8 10 10 9 11 11 10 8 8 9 9 6
6 4 10 11 3 4 4 3 4 5 3 5 6 6 6 10 10 7 7 9 9 5 5 6 5 5 4 5 4 5 6 6 7 9 12 11 10 11 10 10 9 8 9 8
4 3 6 7 13 12 7 9 3 4 4 4 5 1 15 16 13 14 14 7 7 6 5 4 4 4 3 5 5 4 6 5 6 9 10 11 9 10 9 9 9 9 8 9
4 6 2 10 12 2 5 5 8 7 3 2 2 5 6 11 11 13 11 11 9 8 7 4 3 3 4 4 6 6 6 6 5 9 9 8 9 9 9 9 8 8 7 7
2 5 4 6 3 11 12 15 12 8 8 4 4 5 9 8 7 9 11 13 12 9 6 5 1 2 3 2 6 5 6 6 7 8 8 7 8 8 7 7 6 6 6 7
3 2 5 6 1 3 5 7 8 6 9 3 10 5 9 9 7 8 11 11 12 11 9 5 3 3 1 2 5 4 5 6 7 8 7 6 5 6 6 7 6 6 6 6
3 2 2 6 6 6 1 2 1 8 8 7 3 9 11 9 6 1 8 9 11 12 11 5 3 3 4 3 6 5 6 6 7 6 7 6 5 6 5 5 5 4 4 5
10 3 3 2 3 1 2 6 5 4 3 10 8 12 12 15 4 4 11 9 8 10 10 5 2 2 4 5 6 6 6 5 6 6 6 5 4 6 6 4 4 3 3 4
5 4 2 4 4 1 3 7 7 0 3 6 9 10 11 13 6 5 14 12 12 11 9 5 4 4 6 5 5 5 5 4 6 4 5 5 4 4 4 5 5 3 3 3
3 2 2 3 3 4 6 12 5 6 6 8 6 7 8 5 2 11 9 8 8 7 9 7 6 5 5 4 5 6 5 6 5 5 4 4 3 4 3 3 3 3 3 3
3 4 3 2 4 3 15 3 6 3 5 4 3 3 4 6 8 6 6 7 8 8 8 7 6 6 6 5 4 4 5 5 5 4 4 4 4 3 3 4 3 3 2 3
4 3 4 4 2 3 3 3 3 4 4 5 7 8 7 6 5 6 5 6 6 7 6 6 5 5 6 5 4 4 3 3 4 4 4 4 3 3 3 3 3 2 2 2
4 5 1 4 2 2 3 0 2 4 6 9 9 6 8 9 7 7 7 6 6 5 4 3 4 4 4 5 5 4 3 3 3 3 3 3 3 2 2 2 2 2 2 2
2 6 4 2 2 1 3 8 9 9 6 8 8 6 8 9 8 6 6 6 5 4 3 3 3 3 3 3 3 3 2 2 2 3 2 2 2 2 2 1 2 2 3 3
1 1 0 1 2 2 3 6 10 8 9 8 8 8 8 8 8 7 5 5 4 5 4 4 4 2 1 1 1 1 1 1 1 1 1 2 2 2 2 2 1 2 4 5
Wind_Direction
269 226 231 235 226 239 250 240 249 235 215 209 225 248 234 227 228 232 236 226 223 220 227 217 217 211 193 189 184 189 183 187 168 166 167 174 194 179 175 170 174 171 166 165
259 238 244 262 277 254 236 244 242 253 209 228 245 259 222 223 238 227 232 238 227 227 242 230 214 197 194 193 193 191 195 180 184 180 185 165 163 165 178 177 179 172 169 170
230 251 262 241 254 261 258 228 233 237 207 235 242 262 251 248 254 264 253 252 237 218 226 235 212 208 204 203 195 193 193 187 185 178 148 91 85 68 113 178 174 181 176 170
233 247 243 239 235 234 257 241 237 238 236 238 172 261 235 234 240 236 248 247 247 233 229 237 208 204 205 210 206 203 192 185 185 175 172 174 182 174 198 183 171 173 172 171
239 233 221 228 234 228 246 268 277 235 231 246 212 258 251 234 236 234 239 245 242 229 216 233 229 213 208 211 207 203 194 188 184 182 184 182 190 184 132 140 157 173 166 168
247 253 250 240 253 238 225 237 261 250 242 246 233 225 257 208 224 236 233 237 235 235 224 227 237 204 206 204 198 190 189 190 183 181 186 188 188 154 149 153 167 171 169 167
256 252 252 215 227 160 187 205 229 214 214 236 221 216 232 212 214 224 231 232 237 217 217 224 224 200 199 188 189 186 186 190 184 184 187 186 183 171 169 167 171 163 162 167
293 324 154 188 227 159 180 201 207 233 212 217 162 212 227 222 236 239 231 238 258 232 223 230 227 215 199 190 182 183 186 185 181 182 186 183 173 175 174 173 169 174 176 176
301 268 270 250 203 197 196 228 142 346 339 98 194 280 305 189 223 233 239 245 251 326 288 275 284 261 227 191 190 189 187 187 185 187 180 181 175 171 170 162 161 167 164 156
284 293 242 300 176 191 183 153 159 184 271 220 245 268 228 254 217 232 243 268 316 352 323 307 307 301 269 212 186 188 190 191 183 179 177 175 170 160 148 147 155 156 149 150
277 228 289 330 300 192 163 176 182 186 200 98 348 274 266 241 259 280 340 341 336 323 332 332 324 326 326 50 95 128 145 143 161 165 161 153 148 139 139 147 147 146 136 145
264 288 287 287 265 200 252 155 142 151 175 122 134 273 327 327 325 303 337 325 317 340 341 350 345 348 10 28 53 81 115 141 148 140 137 136 134 133 133 131 128 133 135 129
311 320 317 332 3 106 323 199 164 110 86 193 142 259 359 5 15 355 327 343 337 344 2 1 358 14 16 25 36 68 76 100 119 130 127 127 130 129 127 123 117 114 121 118
338 286 209 279 291 305 302 7 6 149 144 182 233 342 351 355 350 345 348 340 334 337 332 346 359 16 33 44 12 56 74 78 104 112 118 119 120 121 121 121 125 127 131 133
72 279 260 287 298 292 23 18 28 66 18 164 286 91 356 345 325 346 336 343 353 340 339 1 347 352 343 96 69 36 41 66 74 99 100 102 105 105 112 120 124 128 133 133
353 291 315 292 49 72 54 30 45 48 19 38 27 75 10 323 307 351 351 353 354 342 326 327 54 0 16 3 85 96 83 42 69 73 85 100 108 111 109 108 116 127 132 134
263 285 346 274 69 251 32 13 19 81 38 342 36 323 320 330 353 357 353 351 341 332 328 273 232 141 126 75 74 89 89 86 76 93 92 79 85 103 111 122 139 147 149 134
228 74 248 281 338 47 179 329 285 91 52 29 0 340 332 316 269 210 17 344 331 326 325 287 192 137 120 83 76 80 81 79 98 93 103 102 111 114 112 124 142 134 130 148
203 168 288 353 30 196 7 11 352 1 25 21 0 349 345 344 135 199 16 349 327 325 318 314 126 106 113 93 101 102 89 85 91 102 106 102 125 132 124 134 132 111 138 163
166 208 355 338 71 31 303 326 317 357 2 10 13 352 346 339 22 325 352 346 346 344 346 4 60 89 100 103 113 106 103 110 100 104 105 119 117 121 139 143 141 131 158 154
6 11 201 287 93 321 342 317 319 66 271 352 357 333 342 355 293 303 327 341 347 348 354 19 38 64 80 96 104 111 118 100 94 92 98 103 109 101 107 116 120 138 155 129
8 323 13 5 59 317 342 13 63 274 303 312 315 305 303 285 300 308 331 342 355 7 7 21 49 49 40 41 57 72 75 84 92 103 106 104 96 96 116 122 101 95 122 145
27 3 348 7 80 91 11 78 316 321 291 321 335 340 330 334 329 331 333 354 2 20 17 18 37 47 33 33 55 89 88 98 98 94 89 86 71 65 79 95 108 117 117 119
356 9 31 208 77 140 62 241 2 317 333 345 354 340 350 348 354 347 352 4 13 15 18 27 37 38 34 25 42 82 95 88 101 117 130 121 116 138 122 136 146 134 139 157
252 335 324 45 57 74 120 34 358 342 358 357 353 350 1 353 356 352 2 3 3 7 10 17 48 43 45 35 66 58 86 120 124 115 116 115 121 119 138 153 165 178 181 170
289 218 6 277 120 302 327 27 3 354 359 360 360 358 7 10 355 344 356 0 3 4 2 16 17 49 74 70 93 97 94 98 120 145 156 173 157 170 178 177 186 242 229 218